contact:dominique.lefevre@mio.osupytheas.fr, maurice.libes@osupytheas.fr, didier.mallarino@osupytheas.fr
Project:EMSO http://www.emso-fr.org/EMSO-France
Depth: 2436.0 m
Title:EMSO Ligure Ouest : Data MII capteur MICROCAT
DateTime_Computer,Latitude,Longitude,Temperature,Conductivity,Pressure,DateTime_Instrument
DateTime_Computer,Latitude,Longitude,degC,S m-1,dbar,DateTime_Instrument
2022-04-06T13:53:08Z,42.805,6.029,13.2997,4.60034,2470.32,2022-4-06T15:54:46Z
2022-04-06T13:56:12Z,42.805,6.029,13.2996,4.60036,2470.287,2022-4-06T15:57:49Z
2022-04-06T13:59:15Z,42.805,6.029,13.2998,4.60036,2470.273,2022-4-06T16:00:52Z
2022-04-06T14:02:18Z,42.805,6.029,13.2998,4.60036,2470.264,2022-4-06T16:03:55Z
2022-04-06T14:05:21Z,42.805,6.029,13.2998,4.60039,2470.287,2022-4-06T16:06:59Z
2022-04-06T14:08:24Z,42.805,6.029,13.2998,4.60041,2470.203,2022-4-06T16:10:02Z
2022-04-06T14:11:27Z,42.805,6.029,13.3004,4.60046,2470.227,2022-4-06T16:13:05Z
2022-04-06T14:14:30Z,42.805,6.029,13.2999,4.60040,2470.203,2022-4-06T16:16:08Z
2022-04-06T14:17:33Z,42.805,6.029,13.2996,4.60041,2470.194,2022-4-06T16:19:11Z
2022-04-06T14:20:36Z,42.805,6.029,13.2999,4.60037,2470.18,2022-4-06T16:22:14Z
2022-04-06T14:23:40Z,42.805,6.029,13.3002,4.60039,2470.203,2022-4-06T16:25:17Z
2022-04-06T14:26:43Z,42.805,6.029,13.2997,4.60043,2470.194,2022-4-06T16:28:20Z
2022-04-06T14:29:46Z,42.805,6.029,13.2999,4.60044,2470.203,2022-4-06T16:31:24Z
2022-04-06T14:32:49Z,42.805,6.029,13.2998,4.60037,2470.227,2022-4-06T16:34:27Z
2022-04-06T14:35:52Z,42.805,6.029,13.2994,4.60037,2470.203,2022-4-06T16:37:30Z
2022-04-06T14:38:55Z,42.805,6.029,13.3000,4.60050,2470.18,2022-4-06T16:40:33Z
2022-04-06T14:41:58Z,42.805,6.029,13.2999,4.60045,2470.203,2022-4-06T16:43:36Z
2022-04-06T14:45:01Z,42.805,6.029,13.2998,4.60046,2470.133,2022-4-06T16:46:39Z
2022-04-06T14:48:05Z,42.805,6.029,13.3002,4.60042,2470.18,2022-4-06T16:49:42Z
2022-04-06T14:51:08Z,42.805,6.029,13.2998,4.60039,2470.156,2022-4-06T16:52:45Z
2022-04-06T14:54:11Z,42.805,6.029,13.2999,4.60043,2470.171,2022-4-06T16:55:49Z
2022-04-06T14:57:14Z,42.805,6.029,13.2999,4.60035,2470.156,2022-4-06T16:58:52Z
2022-04-06T15:00:17Z,42.805,6.029,13.2998,4.60036,2470.156,2022-4-06T17:01:55Z
2022-04-06T15:03:20Z,42.805,6.029,13.2999,4.60036,2470.203,2022-4-06T17:04:58Z
2022-04-06T15:06:23Z,42.805,6.029,13.2997,4.60034,2470.156,2022-4-06T17:08:01Z
2022-04-06T15:09:26Z,42.805,6.029,13.3000,4.60035,2470.156,2022-4-06T17:11:04Z
2022-04-06T15:12:30Z,42.805,6.029,13.2998,4.60039,2470.156,2022-4-06T17:14:07Z
2022-04-06T15:15:33Z,42.805,6.029,13.2996,4.60039,2470.18,2022-4-06T17:17:10Z
2022-04-06T15:18:36Z,42.805,6.029,13.2998,4.60039,2470.156,2022-4-06T17:20:13Z
2022-04-06T15:21:39Z,42.805,6.029,13.2996,4.60037,2470.171,2022-4-06T17:23:17Z
2022-04-06T15:24:42Z,42.805,6.029,13.3000,4.60036,2470.133,2022-4-06T17:26:20Z
2022-04-06T15:27:45Z,42.805,6.029,13.2998,4.60035,2470.133,2022-4-06T17:29:23Z
2022-04-06T15:30:48Z,42.805,6.029,13.2994,4.60037,2470.147,2022-4-06T17:32:26Z
2022-04-06T15:33:51Z,42.805,6.029,13.3000,4.60037,2470.133,2022-4-06T17:35:29Z
2022-04-06T15:36:55Z,42.805,6.029,13.3001,4.60043,2470.156,2022-4-06T17:38:32Z
2022-04-06T15:39:58Z,42.805,6.029,13.2998,4.60035,2470.133,2022-4-06T17:41:35Z
2022-04-06T15:43:01Z,42.805,6.029,13.2998,4.60038,2470.147,2022-4-06T17:44:38Z
2022-04-06T15:46:04Z,42.805,6.029,13.2999,4.60039,2470.133,2022-4-06T17:47:42Z
2022-04-06T15:49:07Z,42.805,6.029,13.3001,4.60044,2470.124,2022-4-06T17:50:45Z
2022-04-06T15:52:10Z,42.805,6.029,13.3001,4.60041,2470.124,2022-4-06T17:53:48Z
2022-04-06T15:55:13Z,42.805,6.029,13.2998,4.60037,2470.11,2022-4-06T17:56:51Z
2022-04-06T15:58:16Z,42.805,6.029,13.2998,4.60034,2470.133,2022-4-06T17:59:54Z
2022-04-06T16:01:19Z,42.805,6.029,13.2998,4.60037,2470.1,2022-4-06T18:02:57Z
2022-04-06T16:04:23Z,42.805,6.029,13.2996,4.60035,2470.1,2022-4-06T18:06:00Z
2022-04-06T16:07:26Z,42.805,6.029,13.3004,4.60038,2470.087,2022-4-06T18:09:03Z
2022-04-06T16:10:29Z,42.805,6.029,13.3002,4.60039,2470.147,2022-4-06T18:12:07Z
2022-04-06T16:13:32Z,42.805,6.029,13.2999,4.60040,2470.063,2022-4-06T18:15:10Z
2022-04-06T16:16:35Z,42.805,6.029,13.3000,4.60039,2470.124,2022-4-06T18:18:13Z
2022-04-06T16:19:38Z,42.805,6.029,13.3000,4.60041,2470.1,2022-4-06T18:21:16Z
2022-04-06T16:22:41Z,42.805,6.029,13.2998,4.60038,2470.087,2022-4-06T18:24:19Z
2022-04-06T16:25:44Z,42.805,6.029,13.2998,4.60037,2470.1,2022-4-06T18:27:22Z
2022-04-06T16:28:48Z,42.805,6.029,13.2998,4.60036,2470.087,2022-4-06T18:30:25Z
2022-04-06T16:31:51Z,42.805,6.029,13.3000,4.60036,2470.124,2022-4-06T18:33:28Z
2022-04-06T16:34:54Z,42.805,6.029,13.2997,4.60033,2470.11,2022-4-06T18:36:32Z
2022-04-06T16:37:57Z,42.805,6.029,13.2999,4.60034,2470.124,2022-4-06T18:39:35Z
2022-04-06T16:41:00Z,42.805,6.029,13.2998,4.60034,2470.133,2022-4-06T18:42:38Z
2022-04-06T16:44:03Z,42.805,6.029,13.2998,4.60035,2470.1,2022-4-06T18:45:41Z
2022-04-06T16:47:06Z,42.805,6.029,13.3000,4.60035,2470.133,2022-4-06T18:48:44Z
2022-04-06T16:50:09Z,42.805,6.029,13.3001,4.60040,2470.147,2022-4-06T18:51:47Z
2022-04-06T16:53:13Z,42.805,6.029,13.3001,4.60038,2470.11,2022-4-06T18:54:50Z
2022-04-06T16:56:16Z,42.805,6.029,13.3000,4.60039,2470.124,2022-4-06T18:57:53Z
2022-04-06T16:59:19Z,42.805,6.029,13.2998,4.60034,2470.147,2022-4-06T19:00:57Z
2022-04-06T17:02:22Z,42.805,6.029,13.2999,4.60033,2470.147,2022-4-06T19:04:00Z
2022-04-06T17:05:25Z,42.805,6.029,13.2998,4.60038,2470.133,2022-4-06T19:07:03Z
2022-04-06T17:08:28Z,42.805,6.029,13.3004,4.60037,2470.133,2022-4-06T19:10:06Z
2022-04-06T17:11:31Z,42.805,6.029,13.3000,4.60036,2470.133,2022-4-06T19:13:09Z
2022-04-06T17:14:34Z,42.805,6.029,13.2997,4.60043,2470.11,2022-4-06T19:16:12Z
2022-04-06T17:17:37Z,42.805,6.029,13.3000,4.60039,2470.133,2022-4-06T19:19:15Z
2022-04-06T17:20:41Z,42.805,6.029,13.2996,4.60034,2470.147,2022-4-06T19:22:18Z
2022-04-06T17:23:44Z,42.805,6.029,13.3001,4.60037,2470.156,2022-4-06T19:25:21Z
2022-04-06T17:26:47Z,42.805,6.029,13.2998,4.60038,2470.133,2022-4-06T19:28:25Z
2022-04-06T17:29:50Z,42.805,6.029,13.3000,4.60047,2470.133,2022-4-06T19:31:28Z
2022-04-06T17:32:53Z,42.805,6.029,13.3000,4.60038,2470.171,2022-4-06T19:34:31Z
2022-04-06T17:35:56Z,42.805,6.029,13.2997,4.60035,2470.147,2022-4-06T19:37:34Z
2022-04-06T17:38:59Z,42.805,6.029,13.2997,4.60039,2470.119,2022-4-06T19:40:37Z
2022-04-06T17:42:02Z,42.805,6.029,13.3004,4.60039,2470.156,2022-4-06T19:43:40Z
2022-04-06T17:45:06Z,42.805,6.029,13.3001,4.60036,2470.156,2022-4-06T19:46:43Z
2022-04-06T17:48:09Z,42.805,6.029,13.3004,4.60039,2470.133,2022-4-06T19:49:46Z
2022-04-06T17:51:12Z,42.805,6.029,13.2997,4.60043,2470.147,2022-4-06T19:52:50Z
2022-04-06T17:54:15Z,42.805,6.029,13.3001,4.60035,2470.171,2022-4-06T19:55:53Z
2022-04-06T17:57:18Z,42.805,6.029,13.3002,4.60037,2470.133,2022-4-06T19:58:56Z
2022-04-06T18:00:21Z,42.805,6.029,13.3002,4.60041,2470.194,2022-4-06T20:01:59Z
2022-04-06T18:03:24Z,42.805,6.029,13.2999,4.60036,2470.18,2022-4-06T20:05:02Z
2022-04-06T18:06:27Z,42.805,6.029,13.2998,4.60041,2470.171,2022-4-06T20:08:05Z
2022-04-06T18:09:31Z,42.805,6.029,13.3000,4.60038,2470.18,2022-4-06T20:11:08Z
2022-04-06T18:12:34Z,42.805,6.029,13.3002,4.60038,2470.18,2022-4-06T20:14:11Z
2022-04-06T18:15:37Z,42.805,6.029,13.3002,4.60039,2470.203,2022-4-06T20:17:15Z
2022-04-06T18:18:40Z,42.805,6.029,13.2998,4.60039,2470.203,2022-4-06T20:20:18Z
2022-04-06T18:21:43Z,42.805,6.029,13.3001,4.60037,2470.194,2022-4-06T20:23:21Z
2022-04-06T18:24:46Z,42.805,6.029,13.2999,4.60038,2470.18,2022-4-06T20:26:24Z
2022-04-06T18:27:49Z,42.805,6.029,13.2997,4.60038,2470.203,2022-4-06T20:29:27Z
2022-04-06T18:30:52Z,42.805,6.029,13.2998,4.60037,2470.217,2022-4-06T20:32:30Z
2022-04-06T18:33:56Z,42.805,6.029,13.2998,4.60036,2470.194,2022-4-06T20:35:33Z
2022-04-06T18:36:59Z,42.805,6.029,13.3001,4.60036,2470.203,2022-4-06T20:38:36Z
2022-04-06T18:40:02Z,42.805,6.029,13.3000,4.60039,2470.203,2022-4-06T20:41:39Z
2022-04-06T18:43:05Z,42.805,6.029,13.2997,4.60037,2470.227,2022-4-06T20:44:43Z
2022-04-06T18:46:08Z,42.805,6.029,13.2997,4.60038,2470.217,2022-4-06T20:47:46Z
2022-04-06T18:49:11Z,42.805,6.029,13.3001,4.60039,2470.203,2022-4-06T20:50:49Z
2022-04-06T18:52:14Z,42.805,6.029,13.3000,4.60039,2470.227,2022-4-06T20:53:52Z
2022-04-06T18:55:17Z,42.805,6.029,13.3001,4.60039,2470.227,2022-4-06T20:56:55Z
2022-04-06T18:58:20Z,42.805,6.029,13.2998,4.60035,2470.203,2022-4-06T20:59:58Z
2022-04-06T19:01:24Z,42.805,6.029,13.3000,4.60036,2470.18,2022-4-06T21:03:01Z
2022-04-06T19:04:27Z,42.805,6.029,13.2999,4.60036,2470.25,2022-4-06T21:06:04Z
2022-04-06T19:07:30Z,42.805,6.029,13.3001,4.60039,2470.264,2022-4-06T21:09:08Z
2022-04-06T19:10:33Z,42.805,6.029,13.3000,4.60045,2470.264,2022-4-06T21:12:11Z
2022-04-06T19:13:36Z,42.805,6.029,13.3000,4.60040,2470.227,2022-4-06T21:15:14Z
2022-04-06T19:16:39Z,42.805,6.029,13.2998,4.60043,2470.24,2022-4-06T21:18:17Z
2022-04-06T19:19:42Z,42.805,6.029,13.3000,4.60042,2470.227,2022-4-06T21:21:20Z
2022-04-06T19:22:45Z,42.805,6.029,13.2997,4.60040,2470.227,2022-4-06T21:24:23Z
2022-04-06T19:25:49Z,42.805,6.029,13.2998,4.60049,2470.273,2022-4-06T21:27:26Z
2022-04-06T19:28:52Z,42.805,6.029,13.2997,4.60040,2470.25,2022-4-06T21:30:29Z
2022-04-06T19:31:55Z,42.805,6.029,13.2998,4.60036,2470.273,2022-4-06T21:33:33Z
2022-04-06T19:34:58Z,42.805,6.029,13.3000,4.60034,2470.227,2022-4-06T21:36:36Z
2022-04-06T19:38:01Z,42.805,6.029,13.3000,4.60034,2470.273,2022-4-06T21:39:39Z
2022-04-06T19:41:04Z,42.805,6.029,13.2998,4.60039,2470.264,2022-4-06T21:42:42Z
2022-04-06T19:44:07Z,42.805,6.029,13.3000,4.60039,2470.32,2022-4-06T21:45:45Z
2022-04-06T19:47:10Z,42.805,6.029,13.3001,4.60044,2470.273,2022-4-06T21:48:48Z
2022-04-06T19:50:14Z,42.805,6.029,13.3001,4.60046,2470.297,2022-4-06T21:51:51Z
2022-04-06T19:53:17Z,42.805,6.029,13.3000,4.60046,2470.264,2022-4-06T21:54:54Z
2022-04-06T19:56:20Z,42.805,6.029,13.3000,4.60043,2470.273,2022-4-06T21:57:58Z
2022-04-06T19:59:23Z,42.805,6.029,13.3000,4.60039,2470.273,2022-4-06T22:01:01Z
2022-04-06T20:02:26Z,42.805,6.029,13.2998,4.60040,2470.273,2022-4-06T22:04:04Z
2022-04-06T20:05:29Z,42.805,6.029,13.3000,4.60044,2470.287,2022-4-06T22:07:07Z
2022-04-06T20:08:32Z,42.805,6.029,13.3000,4.60040,2470.31,2022-4-06T22:10:10Z
2022-04-06T20:11:35Z,42.805,6.029,13.2998,4.60038,2470.297,2022-4-06T22:13:13Z
2022-04-06T20:14:39Z,42.805,6.029,13.3000,4.60044,2470.273,2022-4-06T22:16:16Z
2022-04-06T20:17:42Z,42.805,6.029,13.2998,4.60041,2470.297,2022-4-06T22:19:19Z
2022-04-06T20:20:45Z,42.805,6.029,13.3002,4.60038,2470.32,2022-4-06T22:22:23Z
2022-04-06T20:23:48Z,42.805,6.029,13.3000,4.60040,2470.297,2022-4-06T22:25:26Z
2022-04-06T20:26:51Z,42.805,6.029,13.2998,4.60040,2470.32,2022-4-06T22:28:29Z
2022-04-06T20:29:54Z,42.805,6.029,13.3000,4.60039,2470.334,2022-4-06T22:31:32Z
2022-04-06T20:32:57Z,42.805,6.029,13.3001,4.60037,2470.297,2022-4-06T22:34:35Z
2022-04-06T20:36:00Z,42.805,6.029,13.3001,4.60035,2470.297,2022-4-06T22:37:38Z
2022-04-06T20:39:04Z,42.805,6.029,13.3000,4.60040,2470.287,2022-4-06T22:40:41Z
2022-04-06T20:42:07Z,42.805,6.029,13.3000,4.60039,2470.273,2022-4-06T22:43:44Z
2022-04-06T20:45:10Z,42.805,6.029,13.3000,4.60036,2470.334,2022-4-06T22:46:48Z
2022-04-06T20:48:13Z,42.805,6.029,13.2997,4.60038,2470.32,2022-4-06T22:49:51Z
2022-04-06T20:51:16Z,42.805,6.029,13.2999,4.60035,2470.32,2022-4-06T22:52:54Z
2022-04-06T20:54:19Z,42.805,6.029,13.3001,4.60037,2470.297,2022-4-06T22:55:57Z
2022-04-06T20:57:22Z,42.805,6.029,13.3004,4.60041,2470.357,2022-4-06T22:59:00Z
2022-04-06T21:00:25Z,42.805,6.029,13.2998,4.60041,2470.343,2022-4-06T23:02:03Z
2022-04-06T21:03:29Z,42.805,6.029,13.3000,4.60036,2470.343,2022-4-06T23:05:06Z
2022-04-06T21:06:32Z,42.805,6.029,13.2999,4.60035,2470.334,2022-4-06T23:08:09Z
2022-04-06T21:09:35Z,42.805,6.029,13.2998,4.60036,2470.334,2022-4-06T23:11:13Z
2022-04-06T21:12:38Z,42.805,6.029,13.2996,4.60041,2470.32,2022-4-06T23:14:16Z
2022-04-06T21:15:41Z,42.805,6.029,13.3000,4.60039,2470.32,2022-4-06T23:17:19Z
2022-04-06T21:18:44Z,42.805,6.029,13.3001,4.60036,2470.334,2022-4-06T23:20:22Z
2022-04-06T21:21:47Z,42.805,6.029,13.2997,4.60034,2470.334,2022-4-06T23:23:25Z
2022-04-06T21:24:50Z,42.805,6.029,13.2998,4.60041,2470.297,2022-4-06T23:26:28Z
2022-04-06T21:27:53Z,42.805,6.029,13.2998,4.60042,2470.32,2022-4-06T23:29:31Z
2022-04-06T21:30:57Z,42.805,6.029,13.2996,4.60038,2470.38,2022-4-06T23:32:34Z
2022-04-06T21:34:00Z,42.805,6.029,13.3000,4.60035,2470.32,2022-4-06T23:35:37Z
2022-04-06T21:37:03Z,42.805,6.029,13.3000,4.60037,2470.343,2022-4-06T23:38:41Z
2022-04-06T21:40:06Z,42.805,6.029,13.3000,4.60037,2470.38,2022-4-06T23:41:44Z
2022-04-06T21:43:09Z,42.805,6.029,13.3001,4.60038,2470.343,2022-4-06T23:44:47Z
2022-04-06T21:46:12Z,42.805,6.029,13.3003,4.60044,2470.343,2022-4-06T23:47:50Z
2022-04-06T21:49:15Z,42.805,6.029,13.2999,4.60036,2470.343,2022-4-06T23:50:53Z
2022-04-06T21:52:18Z,42.805,6.029,13.3001,4.60036,2470.366,2022-4-06T23:53:56Z
2022-04-06T21:55:22Z,42.805,6.029,13.3002,4.60035,2470.357,2022-4-06T23:56:59Z
2022-04-06T21:58:25Z,42.805,6.029,13.2998,4.60044,2470.38,2022-4-07T00:00:02Z
2022-04-06T22:01:28Z,42.805,6.029,13.3000,4.60036,2470.366,2022-4-07T00:03:06Z
2022-04-06T22:04:31Z,42.805,6.029,13.3001,4.60035,2470.343,2022-4-07T00:06:09Z
2022-04-06T22:07:34Z,42.805,6.029,13.3000,4.60035,2470.38,2022-4-07T00:09:12Z
2022-04-06T22:10:37Z,42.805,6.029,13.2997,4.60036,2470.357,2022-4-07T00:12:15Z
2022-04-06T22:13:40Z,42.805,6.029,13.3001,4.60034,2470.357,2022-4-07T00:15:18Z
2022-04-06T22:16:43Z,42.805,6.029,13.2999,4.60036,2470.357,2022-4-07T00:18:21Z
2022-04-06T22:19:47Z,42.805,6.029,13.3001,4.60041,2470.32,2022-4-07T00:21:24Z
2022-04-06T22:22:50Z,42.805,6.029,13.3001,4.60038,2470.366,2022-4-07T00:24:27Z
2022-04-06T22:25:53Z,42.805,6.029,13.3001,4.60044,2470.357,2022-4-07T00:27:30Z
2022-04-06T22:28:56Z,42.805,6.029,13.3000,4.60036,2470.366,2022-4-07T00:30:34Z
2022-04-06T22:31:59Z,42.805,6.029,13.2998,4.60042,2470.343,2022-4-07T00:33:37Z
2022-04-06T22:35:02Z,42.805,6.029,13.3002,4.60043,2470.32,2022-4-07T00:36:40Z
2022-04-06T22:38:05Z,42.805,6.029,13.3001,4.60041,2470.404,2022-4-07T00:39:43Z
2022-04-06T22:41:08Z,42.805,6.029,13.3000,4.60037,2470.343,2022-4-07T00:42:46Z
2022-04-06T22:44:11Z,42.805,6.029,13.2998,4.60042,2470.38,2022-4-07T00:45:49Z
2022-04-06T22:47:15Z,42.805,6.029,13.3000,4.60036,2470.366,2022-4-07T00:48:52Z
2022-04-06T22:50:18Z,42.805,6.029,13.2998,4.60041,2470.38,2022-4-07T00:51:55Z
2022-04-06T22:53:21Z,42.805,6.029,13.3000,4.60038,2470.366,2022-4-07T00:54:59Z
2022-04-06T22:56:24Z,42.805,6.029,13.2997,4.60037,2470.38,2022-4-07T00:58:02Z
2022-04-06T22:59:27Z,42.805,6.029,13.3002,4.60046,2470.343,2022-4-07T01:01:05Z
2022-04-06T23:02:30Z,42.805,6.029,13.3000,4.60046,2470.343,2022-4-07T01:04:08Z
2022-04-06T23:05:33Z,42.805,6.029,13.2999,4.60041,2470.343,2022-4-07T01:07:11Z
2022-04-06T23:08:36Z,42.805,6.029,13.3002,4.60040,2470.366,2022-4-07T01:10:14Z
2022-04-06T23:11:39Z,42.805,6.029,13.3000,4.60044,2470.366,2022-4-07T01:13:17Z
2022-04-06T23:14:43Z,42.805,6.029,13.3001,4.60040,2470.343,2022-4-07T01:16:20Z
2022-04-06T23:17:46Z,42.805,6.029,13.3001,4.60038,2470.38,2022-4-07T01:19:23Z
2022-04-06T23:20:49Z,42.805,6.029,13.2999,4.60039,2470.343,2022-4-07T01:22:27Z
2022-04-06T23:23:52Z,42.805,6.029,13.3000,4.60039,2470.38,2022-4-07T01:25:30Z
2022-04-06T23:26:55Z,42.805,6.029,13.3001,4.60039,2470.357,2022-4-07T01:28:33Z
2022-04-06T23:29:58Z,42.805,6.029,13.3001,4.60039,2470.343,2022-4-07T01:31:36Z
2022-04-06T23:33:01Z,42.805,6.029,13.3004,4.60047,2470.343,2022-4-07T01:34:39Z
2022-04-06T23:36:04Z,42.805,6.029,13.3001,4.60039,2470.357,2022-4-07T01:37:42Z
2022-04-06T23:39:08Z,42.805,6.029,13.3000,4.60039,2470.343,2022-4-07T01:40:45Z
2022-04-06T23:42:11Z,42.805,6.029,13.3000,4.60041,2470.343,2022-4-07T01:43:48Z
2022-04-06T23:45:14Z,42.805,6.029,13.3004,4.60059,2470.357,2022-4-07T01:46:51Z
2022-04-06T23:48:17Z,42.805,6.029,13.3000,4.60042,2470.357,2022-4-07T01:49:55Z
2022-04-06T23:51:20Z,42.805,6.029,13.2998,4.60052,2470.366,2022-4-07T01:52:58Z
2022-04-06T23:54:23Z,42.805,6.029,13.3004,4.60057,2470.343,2022-4-07T01:56:01Z
2022-04-06T23:57:26Z,42.805,6.029,13.3002,4.60049,2470.343,2022-4-07T01:59:04Z
